STARLINK-1125 (44950 NORAD) Tracking and Keplerian Element Data

This shows tracking and keplerian element data for the satellite.

Feedback or suggestion? Click here.




ElementValue
Catalog44950
NameSTARLINK-1125
Epoch Orbit654
Epoch Day48.58334491
Epoch Year2020
RAAN190.4697
Inclination52.9956
Eccentricity0.0001584
Argument of Perigee44.8102
Mean Anonmoly249.9621
Mean Motion15.73228884
Decay Rate-0.00011881
L11 44950U 20001AN 20048.58334491 -.00011881 00000-0 -80221-4 0 9994
L22 44950 52.9956 190.4697 0001584 44.8102 249.9621 15.73228884 6549

Live tracking and technical data element details for STARLINK-1125 (NORAD 44950). STARLINK-1125 can be tracked NOW for your location showing map with azimuth and elevation plus other details from your city location.

Track the satellite on the map from your city or location and see movement details for azimuth, elevation, latitude, longitude, range, height, and movement on the map or in text.







IsCatalogInMostPopularTable: catalog: 44950, numindb: 8
Update: records affected: 1



GetName: 44950 STARLINK-1125

Hit Count: updated at: Tue, 18 Feb 2020 00:10:30 GMT